Kerkyra, Greece

2:35 AM EEST on October 21, 2018 (GMT +0300)
Ioannis Kapodistrias

Weather History for LGKR - April, 2018

Change the Weather History Date:

Tuesday, April 17, 2018

  Actual Average Record
Temperature  
Mean Temperature 64 °F -  
Max Temperature 71 °F 72 °F 73 °F (2016)
Min Temperature 56 °F 52 °F 44 °F (1997)
Degree Days  
Heating Degree Days 2    
Growing Degree Days 14 (Base 50)    
Moisture  
Dew Point 57 °F    
Average Humidity 80    
Maximum Humidity 94    
Minimum Humidity 58    
Precipitation  
Precipitation 0.00 in 0.06 in - ()
Sea Level Pressure  
Sea Level Pressure 30.01 in    
Wind  
Wind Speed 3 mph ()    
Max Wind Speed 10 mph    
Max Gust Speed -    
Visibility 3.8 miles    
Events      
Averages and records for this station are not official NWS values.
T = Trace of Precipitation, MM = Missing Value Source: Averaged Metar Reports

Daily Weather History Graph

Daily Weather History Graph

Search for Another Location

Airport or City:

Astronomy

Apr. 17, 2018 Rise Set
Actual Time 7:00 AM EEST 8:20 PM EEST
Civil Twilight 6:32 AM EEST 8:48 PM EEST
Nautical Twilight 5:58 AM EEST 9:21 PM EEST
Astronomical Twilight 5:23 AM EEST 9:57 PM EEST
Moon 8:08 AM EEST (4/17) 9:55 PM EEST (4/17)
Length of Visible Light 14h 15m
Length of Day
13h 19m
New Moon, 2% of the Moon is Illuminated
Apr 17
New Moon
Apr 23
First Quarter
Apr 30
Full
May 8
Last Quarter
May 15
New

Hourly Weather History & Observations

Time (EEST) Temp. Dew Point Humidity Pressure Visibility Wind Dir Wind Speed Gust Speed Precip Events Conditions
12:00 AM 59 °F 56 °F 88% 29.96 in 5 mi West 4.6 mph - -   Widespread Dust
12:20 AM 59.0 °F 57.2 °F 94% 29.95 in 5.0 mi West 4.6 mph - N/A   Scattered Clouds
12:50 AM 59.0 °F 57.2 °F 94% 29.95 in 5.0 mi Calm Calm - N/A   Scattered Clouds
1:20 AM 57.2 °F 55.4 °F 94% 29.95 in 5.0 mi Calm Calm - N/A   Scattered Clouds
1:50 AM 57.2 °F 55.4 °F 94% 29.95 in 5.0 mi Calm Calm - N/A   Scattered Clouds
2:20 AM 57.2 °F 55.4 °F 94% 29.95 in 5.0 mi Calm Calm - N/A   Scattered Clouds
2:50 AM 57.2 °F 55.4 °F 94% 29.98 in 5.0 mi Calm Calm - N/A   Scattered Clouds
3:00 AM 58 °F 55 °F 88% 29.99 in 5 mi Calm Calm - -   Mist
3:20 AM 57.2 °F 55.4 °F 94% 29.98 in 5.0 mi Calm Calm - N/A   Scattered Clouds
3:50 AM 57.2 °F 55.4 °F 94% 29.98 in 3.7 mi Calm Calm - N/A   Scattered Clouds
4:20 AM 57.2 °F 55.4 °F 94% 29.98 in 3.7 mi Calm Calm - N/A   Scattered Clouds
4:50 AM 57.2 °F 55.4 °F 94% 29.98 in 3.1 mi Calm Calm - N/A   Scattered Clouds
5:20 AM 57.2 °F 55.4 °F 94% 29.98 in 3.1 mi Calm Calm - N/A   Scattered Clouds
5:50 AM 57.2 °F 55.4 °F 94% 29.98 in 3.1 mi Calm Calm - N/A   Scattered Clouds
6:20 AM 57.2 °F 55.4 °F 94% 29.98 in 3.1 mi West 4.6 mph - N/A   Scattered Clouds
6:50 AM 57.2 °F 55.4 °F 94% 29.98 in 3.1 mi West 4.6 mph - N/A   Scattered Clouds
7:20 AM 57.2 °F 55.4 °F 94% 29.98 in 2.5 mi Calm Calm - N/A   Partly Cloudy
7:50 AM 57.2 °F 55.4 °F 94% 30.01 in 2.5 mi SW 3.5 mph - N/A   Scattered Clouds
8:20 AM 57.2 °F 55.4 °F 94% 30.01 in 2.5 mi Calm Calm - N/A   Scattered Clouds
8:50 AM 59.0 °F 57.2 °F 94% 30.01 in 2.5 mi WNW 2.3 mph - N/A   Scattered Clouds
9:00 AM 58 °F 56 °F 92% 30.02 in 2 mi WNW 2.3 mph - -   Mist
9:20 AM 60.8 °F 57.2 °F 88% 30.01 in 2.5 mi Calm Calm - N/A   Scattered Clouds
9:50 AM 64.4 °F 57.2 °F 77% 30.01 in 2.5 mi Calm Calm - N/A   Scattered Clouds
10:20 AM 66.2 °F 57.2 °F 73% 30.01 in 2.5 mi Calm Calm - N/A   Scattered Clouds
10:50 AM 68.0 °F 57.2 °F 68% 30.04 in 2.5 mi Calm Calm - N/A   Scattered Clouds
11:20 AM 69.8 °F 57.2 °F 64% 30.04 in 2.5 mi North 3.5 mph - N/A   Scattered Clouds
11:50 AM 68.0 °F 57.2 °F 68% 30.04 in 2.5 mi NE 4.6 mph - N/A   Scattered Clouds
12:50 PM 68.0 °F 57.2 °F 68% 30.04 in 2.5 mi East 4.6 mph - N/A   Scattered Clouds
1:20 PM 68.0 °F 57.2 °F 68% 30.04 in 2.5 mi SE 8.1 mph - N/A   Scattered Clouds
1:50 PM 68.0 °F 57.2 °F 68% 30.04 in 2.5 mi ESE 5.8 mph - N/A   Scattered Clouds
2:20 PM 68.0 °F 57.2 °F 68% 30.04 in 2.5 mi South 3.5 mph - N/A   Scattered Clouds
3:00 PM 70 °F 58 °F 58% 30.04 in 2 mi South 3.5 mph - -   Widespread Dust
3:20 PM 69.8 °F 59.0 °F 68% 30.04 in 2.5 mi WSW 10.4 mph - N/A   Scattered Clouds
3:50 PM 69.8 °F 57.2 °F 64% 30.04 in 2.5 mi WSW 10.4 mph - N/A   Scattered Clouds
4:20 PM 69.8 °F 57.2 °F 64% 30.04 in 2.5 mi West 10.4 mph - N/A   Scattered Clouds
4:50 PM 71.6 °F 57.2 °F 60% 30.01 in 4.3 mi WSW 9.2 mph - N/A   Scattered Clouds
5:20 PM 71.6 °F 57.2 °F 60% 30.01 in 4.3 mi WSW 10.4 mph - N/A   Scattered Clouds
5:50 PM 69.8 °F 59.0 °F 68% 30.01 in 4.3 mi WSW 10.4 mph - N/A   Partly Cloudy
6:00 PM 70 °F 59 °F 59% 30.03 in 4 mi WSW 10.4 mph - -   Widespread Dust
6:20 PM 69.8 °F 59.0 °F 68% 30.01 in 4.3 mi WSW 9.2 mph - N/A   Partly Cloudy
6:50 PM 68.0 °F 59.0 °F 73% 30.01 in 5.0 mi WSW 8.1 mph - N/A   Partly Cloudy
7:20 PM 68.0 °F 59.0 °F 73% 30.01 in 5.0 mi WSW 8.1 mph - N/A   Partly Cloudy
7:50 PM 64.4 °F 57.2 °F 77% 30.04 in 5.0 mi West 5.8 mph - N/A   Partly Cloudy
8:20 PM 64.4 °F 57.2 °F 77% 30.04 in 5.0 mi West 6.9 mph - N/A   Partly Cloudy
8:50 PM 62.6 °F 57.2 °F 82% 30.04 in 5.0 mi WNW 5.8 mph - N/A   Partly Cloudy
9:00 PM 63 °F 57 °F 75% 30.05 in 5 mi WNW 5.8 mph - -   Widespread Dust
9:20 PM 62.6 °F 57.2 °F 82% 30.04 in 5.0 mi WNW 5.8 mph - N/A   Partly Cloudy
9:50 PM 62.6 °F 57.2 °F 82% 30.06 in 5.0 mi West 3.5 mph - N/A   Partly Cloudy
10:20 PM 62.6 °F 57.2 °F 82% 30.06 in 5.0 mi Calm Calm - N/A   Partly Cloudy
10:50 PM 62.6 °F 55.4 °F 77% 30.06 in 5.0 mi Calm Calm - N/A   Partly Cloudy
11:20 PM 62.6 °F 55.4 °F 77% 30.06 in 5.0 mi Calm Calm - N/A   Partly Cloudy
11:50 PM 60.8 °F 55.4 °F 82% 30.06 in 5.0 mi Calm Calm - N/A   Partly Cloudy